Newberry, SC

1:38 AM EST on December 04, 2016 (GMT -0500)
Newberry

Weather History for KEOE - January, 2013

Change the Weather History Date:

Tuesday, January 15, 2013

  Actual Average (KFDW) Record (KFDW)
Temperature  
Mean Temperature 62 °F -  
Max Temperature 73 °F 48 °F 60 °F (2014)
Min Temperature 51 °F 29 °F 32 °F (2011)
Degree Days  
Heating Degree Days 3    
Growing Degree Days 12 (Base 50)    
Moisture  
Dew Point 58 °F    
Average Humidity 84    
Maximum Humidity 100    
Minimum Humidity 61    
Precipitation  
Precipitation 0.00 in - - ()
Sea Level Pressure  
Sea Level Pressure 30.11 in    
Wind  
Wind Speed 5 mph (South)    
Max Wind Speed 13 mph    
Max Gust Speed -    
Visibility 10 miles    
Events Rain    
Averages and records for this station are not official NWS values.
T = Trace of Precipitation, MM = Missing Value Source: NWS Daily Summary

Daily Weather History Graph

Daily Weather History Graph

Search for Another Location

Airport or City:

Trip Planner

Search our weather history database for the weather conditions in past years. The results will help you decide how hot, cold, wet, or windy it might be!

Date:

Astronomy

Jan. 15, 2013 Rise Set
Actual Time 7:32 AM EST 5:40 PM EST
Civil Twilight 7:05 AM EST 6:07 PM EST
Nautical Twilight 6:34 AM EST 6:38 PM EST
Astronomical Twilight 6:04 AM EST 7:08 PM EST
Moon 9:50 AM EST (1/15) 10:13 PM EST (1/15)
Length of Visible Light 11h 02m
Length of Day
10h 07m
Waxing Crescent, 19% of the Moon is Illuminated
Jan 15
Waxing Crescent
Jan 18
First Quarter
Jan 26
Full
Feb 3
Last Quarter
Feb 10
New

Hourly Weather History & Observations

Time (EST) Temp. Dew Point Humidity Pressure Visibility Wind Dir Wind Speed Gust Speed Precip Events Conditions
12:15 AM 64.4 °F 60.8 °F 88% 30.14 in 10.0 mi South 3.5 mph - N/A   Mostly Cloudy
12:35 AM 66.2 °F 60.8 °F 83% 30.14 in 10.0 mi South 4.6 mph - N/A   Mostly Cloudy
12:55 AM 66.2 °F 60.8 °F 83% 30.14 in 10.0 mi South 4.6 mph - N/A   Overcast
1:15 AM 66.2 °F 60.8 °F 83% 30.14 in 10.0 mi South 4.6 mph - N/A   Overcast
1:35 AM 66.2 °F 60.8 °F 83% 30.14 in 10.0 mi SSW 4.6 mph - N/A   Overcast
1:55 AM 66.2 °F 60.8 °F 83% 30.14 in 10.0 mi South 4.6 mph - N/A   Overcast
2:15 AM 66.2 °F 60.8 °F 83% 30.14 in 10.0 mi SSW 4.6 mph - N/A   Overcast
2:35 AM 66.2 °F 60.8 °F 83% 30.14 in 10.0 mi South 4.6 mph - N/A   Overcast
2:55 AM 66.2 °F 60.8 °F 83% 30.14 in 10.0 mi South 4.6 mph - N/A   Overcast
3:15 AM 64.4 °F 60.8 °F 88% 30.14 in 10.0 mi South 4.6 mph - N/A   Overcast
3:55 AM 64.4 °F 60.8 °F 88% 30.13 in 10.0 mi South 4.6 mph - N/A   Overcast
4:15 AM 64.4 °F 60.8 °F 88% 30.12 in 10.0 mi South 4.6 mph - N/A   Overcast
4:55 AM 64.4 °F 60.8 °F 88% 30.11 in 10.0 mi South 4.6 mph - N/A   Overcast
5:35 AM 62.6 °F 60.8 °F 94% 30.11 in 10.0 mi South 4.6 mph - N/A   Mostly Cloudy
5:55 AM 62.6 °F 60.8 °F 94% 30.11 in 10.0 mi South 3.5 mph - N/A   Mostly Cloudy
6:15 AM 62.6 °F 60.8 °F 94% 30.11 in 10.0 mi SSW 4.6 mph - N/A   Scattered Clouds
6:35 AM 62.6 °F 60.8 °F 94% 30.12 in 10.0 mi SSW 4.6 mph - N/A   Scattered Clouds
6:55 AM 60.8 °F 60.8 °F 100% 30.12 in 10.0 mi South 4.6 mph - N/A   Clear
7:15 AM 60.8 °F 60.8 °F 100% 30.13 in 10.0 mi SSW 4.6 mph - N/A   Clear
7:35 AM 60.8 °F 60.8 °F 100% 30.14 in 10.0 mi South 4.6 mph - N/A   Mostly Cloudy
7:55 AM 60.8 °F 60.8 °F 100% 30.15 in 7.0 mi SSW 4.6 mph - N/A   Scattered Clouds
8:15 AM 60.8 °F 60.8 °F 100% 30.16 in 7.0 mi SSW 5.8 mph - N/A   Clear
8:35 AM 60.8 °F 60.8 °F 100% 30.16 in 7.0 mi South 4.6 mph - N/A   Scattered Clouds
8:55 AM 62.6 °F 60.8 °F 94% 30.17 in 10.0 mi SSW 4.6 mph - N/A   Mostly Cloudy
9:15 AM 62.6 °F 60.8 °F 94% 30.17 in 10.0 mi SSW 4.6 mph - N/A   Overcast
9:55 AM 64.4 °F 60.8 °F 88% 30.17 in 10.0 mi SSW 4.6 mph - N/A   Overcast
10:15 AM 64.4 °F 60.8 °F 88% 30.17 in 10.0 mi SW 5.8 mph - N/A   Overcast
10:35 AM 64.4 °F 60.8 °F 88% 30.17 in 10.0 mi SW 5.8 mph - N/A   Overcast
10:55 AM 68.0 °F 60.8 °F 78% 30.16 in 10.0 mi SSW 5.8 mph - N/A   Scattered Clouds
11:15 AM 68.0 °F 60.8 °F 78% 30.15 in 10.0 mi SW 6.9 mph - N/A   Scattered Clouds
11:35 AM 69.8 °F 60.8 °F 73% 30.14 in 10.0 mi SW 10.4 mph - N/A   Mostly Cloudy
11:55 AM 71.6 °F 60.8 °F 69% 30.12 in 10.0 mi SW 8.1 mph - N/A   Mostly Cloudy
12:15 PM 69.8 °F 60.8 °F 73% 30.11 in 10.0 mi SW 6.9 mph - N/A   Mostly Cloudy
12:35 PM 69.8 °F 60.8 °F 73% 30.11 in 10.0 mi South 6.9 mph - N/A   Overcast
12:55 PM 71.6 °F 60.8 °F 69% 30.09 in 10.0 mi South 6.9 mph - N/A   Overcast
1:15 PM 73.4 °F 60.8 °F 65% 30.08 in 10.0 mi SSE 6.9 mph - N/A   Overcast
1:35 PM 71.6 °F 59.0 °F 64% 30.08 in 10.0 mi SSE 6.9 mph - N/A   Mostly Cloudy
1:55 PM 71.6 °F 59.0 °F 64% 30.07 in 10.0 mi South 6.9 mph - N/A   Mostly Cloudy
2:15 PM 73.4 °F 59.0 °F 61% 30.06 in 10.0 mi South 10.4 mph - N/A   Mostly Cloudy
2:35 PM 73.4 °F 59.0 °F 61% 30.06 in 10.0 mi SSE 10.4 mph - N/A   Scattered Clouds
2:55 PM 73.4 °F 59.0 °F 61% 30.06 in 10.0 mi South 6.9 mph - N/A   Scattered Clouds
3:35 PM 73.4 °F 59.0 °F 61% 30.06 in 10.0 mi South 8.1 mph - N/A   Mostly Cloudy
3:55 PM 73.4 °F 59.0 °F 61% 30.06 in 10.0 mi South 5.8 mph - N/A   Mostly Cloudy
4:15 PM 73.4 °F 59.0 °F 61% 30.07 in 10.0 mi Calm Calm - N/A   Mostly Cloudy
4:35 PM 73.4 °F 59.0 °F 61% 30.07 in 10.0 mi South 3.5 mph - N/A   Mostly Cloudy
4:55 PM 68.0 °F 57.2 °F 68% 30.07 in 10.0 mi NNE 8.1 mph - N/A   Mostly Cloudy
5:15 PM 64.4 °F 55.4 °F 73% 30.08 in 10.0 mi NNE 9.2 mph - N/A   Mostly Cloudy
5:35 PM 62.6 °F 55.4 °F 77% 30.08 in 10.0 mi NNE 8.1 mph - N/A   Mostly Cloudy
5:55 PM 60.8 °F 55.4 °F 82% 30.09 in 10.0 mi North 6.9 mph - N/A   Scattered Clouds
6:15 PM 59.0 °F 53.6 °F 82% 30.09 in 10.0 mi NNE 8.1 mph - N/A   Mostly Cloudy
6:35 PM 59.0 °F 53.6 °F 82% 30.10 in 10.0 mi North 6.9 mph - N/A   Mostly Cloudy
6:55 PM 57.2 °F 53.6 °F 88% 30.10 in 10.0 mi North 9.2 mph - N/A   Overcast
7:15 PM 57.2 °F 51.8 °F 82% 30.10 in 10.0 mi NNE 8.1 mph - N/A   Overcast
7:35 PM 55.4 °F 51.8 °F 88% 30.10 in 10.0 mi North 6.9 mph - N/A   Overcast
7:55 PM 55.4 °F 51.8 °F 88% 30.09 in 10.0 mi NNE 12.7 mph - N/A   Mostly Cloudy
8:15 PM 53.6 °F 51.8 °F 94% 30.09 in 10.0 mi NNE 8.1 mph - N/A   Mostly Cloudy
8:35 PM 53.6 °F 51.8 °F 94% 30.07 in 10.0 mi ENE 3.5 mph - N/A   Mostly Cloudy
8:55 PM 53.6 °F 51.8 °F 94% 30.07 in 10.0 mi NNE 5.8 mph - N/A   Mostly Cloudy
9:15 PM 53.6 °F 51.8 °F 94% 30.07 in 10.0 mi NNE 6.9 mph - N/A   Mostly Cloudy
9:35 PM 53.6 °F 51.8 °F 94% 30.07 in 10.0 mi NNE 8.1 mph - N/A   Overcast
9:55 PM 53.6 °F 51.8 °F 94% 30.06 in 10.0 mi NNE 8.1 mph - N/A   Overcast
10:15 PM 53.6 °F 51.8 °F 94% 30.06 in 10.0 mi North 8.1 mph - N/A   Overcast
10:35 PM 53.6 °F 51.8 °F 94% 30.07 in 7.0 mi NNE 6.9 mph - N/A Rain Light Rain
10:55 PM 51.8 °F 51.8 °F 100% 30.07 in 7.0 mi NNE 8.1 mph - N/A   Drizzle
11:15 PM 51.8 °F 51.8 °F 100% 30.06 in 7.0 mi NE 6.9 mph - N/A   Overcast
11:55 PM 51.8 °F 51.8 °F 100% 30.06 in 5.0 mi North 6.9 mph - N/A   Overcast